| time (UTC) | temp C | wind direction | speed KPH | gust KPH | rain 1hr cm | rain 24hr cm | rain mn cm | humidity % | barometer mb |
| 20260505071542 | 13 | 10 | 3.2 | 3.2 | 0.00 | 0.00 | 0.00 | 51 | 1009.0 |
| 20260505071040 | 13 | 66 | 3.2 | 4.8 | 0.00 | 0.00 | 0.00 | 50 | 1009.2 |
| 20260505070537 | 13 | 65 | 4.8 | 9.7 | 0.00 | 0.00 | 0.00 | 49 | 1009.2 |
| 20260505070033 | 14 | 30 | 1.6 | 3.2 | 0.00 | 0.00 | 0.00 | 47 | 1009.2 |
| 20260505065529 | 14 | 8 | 6.4 | 9.7 | 0.00 | 0.00 | 0.00 | 47 | 1009.0 |
| 20260505065026 | 14 | 17 | 1.6 | 4.8 | 0.00 | 0.00 | 0.00 | 47 | 1009.3 |
| 20260505064523 | 14 | 20 | 1.6 | 1.6 | 0.00 | 0.00 | 0.00 | 47 | 1009.2 |
| 20260505064021 | 15 | 351 | 3.2 | 3.2 | 0.00 | 0.00 | 0.00 | 46 | 1008.9 |
| 20260505063518 | 15 | 340 | 1.6 | 1.6 | 0.00 | 0.00 | 0.00 | 47 | 1008.8 |
| 20260505063014 | 15 | 20 | 3.2 | 3.2 | 0.00 | 0.00 | 0.00 | 47 | 1008.3 |
| 20260505062511 | 15 | 24 | 3.2 | 3.2 | 0.00 | 0.00 | 0.00 | 46 | 1008.0 |
| 20260505062008 | 15 | 8 | 3.2 | 4.8 | 0.00 | 0.00 | 0.00 | 48 | 1007.4 |
| 20260505061506 | 15 | 0 | 3.2 | 4.8 | 0.00 | 0.00 | 0.00 | 47 | 1007.2 |
| 20260505061003 | 15 | 71 | 1.6 | 1.6 | 0.00 | 0.00 | 0.00 | 47 | 1007.0 |
| 20260505060501 | 15 | 47 | 0.0 | 1.6 | 0.00 | 0.00 | 0.00 | 46 | 1006.9 |
| 20260505055956 | 16 | 16 | 4.8 | 4.8 | 0.00 | 0.00 | 0.00 | 45 | 1006.9 |
| 20260505055452 | 16 | 47 | 4.8 | 4.8 | 0.00 | 0.00 | 0.00 | 44 | 1007.0 |
| 20260505054949 | 16 | 17 | 6.4 | 9.7 | 0.00 | 0.00 | 0.00 | 44 | 1007.0 |
| 20260505054447 | 16 | 89 | 3.2 | 3.2 | 0.00 | 0.00 | 0.00 | 44 | 1006.8 |
| 20260505053945 | 16 | 39 | 4.8 | 4.8 | 0.00 | 0.00 | 0.00 | 43 | 1006.5 |
| 20260505053442 | 17 | 355 | 6.4 | 9.7 | 0.00 | 0.00 | 0.00 | 43 | 1006.6 |
| 20260505052938 | 17 | 31 | 4.8 | 4.8 | 0.00 | 0.00 | 0.00 | 44 | 1006.4 |
| 20260505052435 | 17 | 26 | 4.8 | 4.8 | 0.00 | 0.00 | 0.00 | 44 | 1006.5 |
| 20260505051932 | 18 | 70 | 3.2 | 4.8 | 0.00 | 0.00 | 0.00 | 43 | 1006.7 |
| 20260505051429 | 18 | 43 | 8.0 | 12.9 | 0.00 | 0.00 | 0.00 | 42 | 1006.4 |
| 20260505050928 | 18 | 29 | 8.0 | 12.9 | 0.00 | 0.00 | 0.00 | 44 | 1006.3 |
| 20260505050426 | 18 | 27 | 4.8 | 4.8 | 0.00 | 0.00 | 0.00 | 43 | 1006.0 |
| 20260505041353 | 20 | 343 | 1.6 | 3.2 | 0.00 | 0.00 | 0.00 | 47 | 1005.2 |
| 20260505040850 | 20 | 41 | 1.6 | 1.6 | 0.00 | 0.00 | 0.00 | 46 | 1005.1 |
| 20260505040348 | 20 | 16 | 1.6 | 1.6 | 0.00 | 0.00 | 0.00 | 46 | 1005.5 |
| 20260505035844 | 20 | 26 | 3.2 | 3.2 | 0.00 | 0.00 | 0.00 | 46 | 1005.2 |
| 20260505035340 | 20 | 39 | 1.6 | 1.6 | 0.00 | 0.00 | 0.00 | 46 | 1005.2 |
| 20260505034838 | 20 | 32 | 1.6 | 1.6 | 0.00 | 0.00 | 0.00 | 46 | 1005.2 |
| 20260505034334 | 20 | 4 | 1.6 | 1.6 | 0.00 | 0.00 | 0.00 | 47 | 1005.0 |
| 20260505033831 | 21 | 10 | 4.8 | 8.0 | 0.00 | 0.00 | 0.00 | 47 | 1005.1 |
| 20260505033328 | 21 | 10 | 1.6 | 3.2 | 0.00 | 0.00 | 0.00 | 46 | 1005.0 |
| 20260505032826 | 21 | 29 | 3.2 | 3.2 | 0.00 | 0.00 | 0.00 | 46 | 1004.6 |
| 20260505032322 | 21 | 62 | 1.6 | 3.2 | 0.00 | 0.00 | 0.00 | 47 | 1004.4 |
| 20260505031820 | 21 | 18 | 3.2 | 3.2 | 0.00 | 0.00 | 0.00 | 51 | 1004.3 |
| 20260505031316 | 21 | 66 | 1.6 | 1.6 | 0.00 | 0.00 | 0.00 | 57 | 1004.6 |
| 20260505030813 | 21 | 247 | 0.0 | 0.0 | 0.00 | 0.00 | 0.00 | 58 | 1004.2 |
| 20260505030310 | 21 | 0 | 0.0 | 1.6 | 0.00 | 0.00 | 0.00 | 54 | 1004.1 |
| 20260505025805 | 21 | 27 | 4.8 | 4.8 | 0.00 | 0.00 | 0.00 | 55 | 1004.1 |
| 20260505025304 | 20 | 322 | 0.0 | 1.6 | 0.00 | 0.00 | 0.00 | 64 | 1003.9 |
| 20260505024801 | 20 | 231 | 0.0 | 0.0 | 0.00 | 0.00 | 0.00 | 65 | 1003.1 |
| 20260505024258 | 21 | 231 | 0.0 | 0.0 | 0.00 | 0.00 | 0.00 | 63 | 1003.1 |
| 20260505023755 | 21 | 198 | 0.0 | 0.0 | 0.00 | 0.00 | 0.00 | 63 | 1003.4 |
| 20260505023252 | 21 | 227 | 0.0 | 0.0 | 0.00 | 0.00 | 0.00 | 65 | 1003.1 |
| 20260505022749 | 20 | 227 | 1.6 | 1.6 | 0.00 | 0.00 | 0.00 | 65 | 1003.1 |
| 20260505022246 | 20 | 232 | 0.0 | 0.0 | 0.00 | 0.00 | 0.00 | 69 | 1003.1 |
| 20260505021743 | 20 | 233 | 0.0 | 0.0 | 0.00 | 0.00 | 0.00 | 70 | 1003.0 |
| 20260505021240 | 20 | 233 | 0.0 | 0.0 | 0.00 | 0.00 | 0.00 | 70 | 1003.0 |
| 20260505020736 | 20 | 233 | 0.0 | 0.0 | 0.00 | 0.00 | 0.00 | 69 | 1002.9 |
| 20260505020231 | 20 | 233 | 0.0 | 0.0 | 0.00 | 0.00 | 0.00 | 69 | 1002.9 |
| 20260505015729 | 20 | 233 | 0.0 | 0.0 | 0.00 | 0.00 | 0.00 | 68 | 1002.8 |
| 20260505015226 | 20 | 234 | 0.0 | 0.0 | 0.00 | 0.00 | 0.00 | 69 | 1002.7 |
| 20260505014723 | 20 | 236 | 0.0 | 0.0 | 0.00 | 0.00 | 0.00 | 69 | 1002.5 |
| 20260505014220 | 20 | 239 | 0.0 | 0.0 | 0.00 | 0.00 | 0.00 | 69 | 1002.6 |
| 20260505013717 | 20 | 246 | 0.0 | 0.0 | 0.00 | 0.00 | 0.00 | 68 | 1002.3 |
| 20260505013214 | 20 | 246 | 0.0 | 0.0 | 0.00 | 0.00 | 0.00 | 69 | 1002.3 |
| 20260505012712 | 21 | 246 | 0.0 | 0.0 | 0.00 | 0.00 | 0.00 | 67 | 1002.5 |
| 20260505012209 | 21 | 249 | 0.0 | 0.0 | 0.00 | 0.00 | 0.00 | 67 | 1002.3 |
| 20260505011704 | 21 | 251 | 0.0 | 0.0 | 0.00 | 0.00 | 0.00 | 67 | 1002.4 |
| 20260505011202 | 21 | 257 | 0.0 | 0.0 | 0.00 | 0.00 | 0.00 | 67 | 1002.2 |
| 20260505010657 | 21 | 258 | 0.0 | 0.0 | 0.00 | 0.00 | 0.00 | 66 | 1002.2 |
| 20260505010154 | 22 | 270 | 0.0 | 0.0 | 0.00 | 0.00 | 0.00 | 64 | 1002.1 |
| 20260505005650 | 22 | 271 | 0.0 | 0.0 | 0.00 | 0.00 | 0.00 | 63 | 1002.1 |
| 20260505005147 | 23 | 265 | 0.0 | 0.0 | 0.00 | 0.00 | 0.00 | 61 | 1002.3 |
| 20260505004644 | 23 | 283 | 0.0 | 0.0 | 0.00 | 0.00 | 0.00 | 60 | 1002.3 |
| 20260505004141 | 23 | 310 | 0.0 | 0.0 | 0.00 | 0.00 | 0.00 | 60 | 1002.0 |
| 20260505003638 | 23 | 311 | 0.0 | 0.0 | 0.00 | 0.00 | 0.00 | 58 | 1002.0 |
| 20260505003136 | 24 | 284 | 0.0 | 0.0 | 0.00 | 0.00 | 0.00 | 57 | 1002.0 |
| 20260505002631 | 24 | 265 | 1.6 | 1.6 | 0.00 | 0.00 | 0.00 | 56 | 1002.0 |
| 20260505002130 | 24 | 253 | 0.0 | 0.0 | 0.00 | 0.00 | 0.00 | 56 | 1002.2 |
| 20260505001627 | 25 | 280 | 0.0 | 0.0 | 0.00 | 0.00 | 0.00 | 55 | 1002.0 |
| 20260505001124 | 25 | 274 | 0.0 | 0.0 | 0.00 | 0.00 | 0.00 | 54 | 1002.0 |
| 20260505000621 | 25 | 292 | 1.6 | 1.6 | 0.00 | 0.00 | 0.00 | 53 | 1002.1 |
| 20260505000119 | 25 | 284 | 0.0 | 0.0 | 0.00 | 0.00 | 0.00 | 52 | 1002.0 |
| 20260504235615 | 25 | 260 | 3.2 | 3.2 | 0.00 | 0.00 | 0.00 | 51 | 1002.0 |
| 20260504235112 | 25 | 221 | 1.6 | 1.6 | 0.00 | 0.00 | 0.00 | 50 | 1002.2 |
| 20260504234609 | 26 | 232 | 0.0 | 0.0 | 0.00 | 0.00 | 0.00 | 50 | 1002.2 |
| 20260504234106 | 26 | 234 | 0.0 | 0.0 | 0.00 | 0.00 | 0.00 | 48 | 1002.0 |
| 20260504233601 | 26 | 206 | 0.0 | 0.0 | 0.00 | 0.00 | 0.00 | 50 | 1001.9 |
| 20260504233058 | 26 | 214 | 0.0 | 1.6 | 0.00 | 0.00 | 0.00 | 48 | 1002.0 |
| 20260504232555 | 26 | 226 | 1.6 | 4.8 | 0.00 | 0.00 | 0.00 | 49 | 1002.0 |
| 20260504232053 | 26 | 351 | 1.6 | 3.2 | 0.00 | 0.00 | 0.00 | 47 | 1002.0 |
| 20260504231549 | 26 | 304 | 1.6 | 1.6 | 0.00 | 0.00 | 0.00 | 48 | 1002.0 |
| 20260504231045 | 26 | 229 | 0.0 | 1.6 | 0.00 | 0.00 | 0.00 | 48 | 1002.2 |
| 20260504230541 | 26 | 267 | 0.0 | 1.6 | 0.00 | 0.00 | 0.00 | 51 | 1001.9 |
| 20260504230041 | 26 | 196 | 0.0 | 0.0 | 0.00 | 0.00 | 0.00 | 50 | 1001.9 |
| 20260504225537 | 27 | 212 | 0.0 | 0.0 | 0.00 | 0.00 | 0.00 | 48 | 1001.7 |
| 20260504225035 | 27 | 218 | 1.6 | 3.2 | 0.00 | 0.00 | 0.00 | 48 | 1001.9 |
| 20260504224531 | 27 | 208 | 3.2 | 3.2 | 0.00 | 0.00 | 0.00 | 48 | 1001.9 |
| 20260504224028 | 27 | 269 | 4.8 | 8.0 | 0.00 | 0.00 | 0.00 | 47 | 1001.9 |
| 20260504223525 | 27 | 348 | 3.2 | 3.2 | 0.00 | 0.00 | 0.00 | 46 | 1002.0 |
| 20260504223021 | 27 | 232 | 0.0 | 0.0 | 0.00 | 0.00 | 0.00 | 47 | 1002.0 |
| 20260504222518 | 27 | 148 | 3.2 | 4.8 | 0.00 | 0.00 | 0.00 | 46 | 1001.7 |
| 20260504222015 | 27 | 280 | 1.6 | 1.6 | 0.00 | 0.00 | 0.00 | 47 | 1001.7 |
| 20260504221513 | 28 | 238 | 0.0 | 0.0 | 0.00 | 0.00 | 0.00 | 44 | 1002.0 |
| 20260504221009 | 28 | 266 | 4.8 | 4.8 | 0.00 | 0.00 | 0.00 | 41 | 1001.7 |
| 20260504220506 | 28 | 235 | 3.2 | 4.8 | 0.00 | 0.00 | 0.00 | 42 | 1001.9 |
| 20260504220003 | 28 | 326 | 4.8 | 8.0 | 0.00 | 0.00 | 0.00 | 41 | 1002.0 |
| 20260504215459 | 28 | 227 | 0.0 | 1.6 | 0.00 | 0.00 | 0.00 | 42 | 1002.0 |
| 20260504214956 | 28 | 268 | 3.2 | 3.2 | 0.00 | 0.00 | 0.00 | 43 | 1002.0 |
| 20260504214452 | 27 | 266 | 0.0 | 0.0 | 0.00 | 0.00 | 0.00 | 47 | 1002.1 |
| 20260504213949 | 27 | 216 | 0.0 | 0.0 | 0.00 | 0.00 | 0.00 | 44 | 1002.1 |
| 20260504213445 | 27 | 165 | 1.6 | 3.2 | 0.00 | 0.00 | 0.00 | 43 | 1002.3 |
| 20260504212943 | 27 | 316 | 3.2 | 4.8 | 0.00 | 0.00 | 0.00 | 41 | 1002.3 |
| 20260504212438 | 28 | 188 | 4.8 | 4.8 | 0.00 | 0.00 | 0.00 | 42 | 1002.4 |
| 20260504211936 | 28 | 175 | 0.0 | 1.6 | 0.00 | 0.00 | 0.00 | 42 | 1002.4 |
| 20260504211432 | 28 | 212 | 3.2 | 4.8 | 0.00 | 0.00 | 0.00 | 41 | 1002.5 |
| 20260504210930 | 27 | 208 | 4.8 | 9.7 | 0.00 | 0.00 | 0.00 | 42 | 1002.3 |
| 20260504210427 | 28 | 227 | 1.6 | 3.2 | 0.00 | 0.00 | 0.00 | 42 | 1002.4 |
| 20260504205924 | 28 | 231 | 3.2 | 3.2 | 0.00 | 0.00 | 0.00 | 41 | 1002.3 |
| 20260504205421 | 28 | 276 | 3.2 | 4.8 | 0.00 | 0.00 | 0.00 | 39 | 1002.4 |
| 20260504204919 | 28 | 290 | 1.6 | 3.2 | 0.00 | 0.00 | 0.00 | 40 | 1002.4 |
| 20260504204417 | 29 | 273 | 1.6 | 3.2 | 0.00 | 0.00 | 0.00 | 40 | 1002.3 |
| 20260504203917 | 29 | 159 | 0.0 | 0.0 | 0.00 | 0.00 | 0.00 | 43 | 1002.3 |
| 20260504203414 | 29 | 239 | 1.6 | 1.6 | 0.00 | 0.00 | 0.00 | 41 | 1002.7 |
| 20260504202909 | 29 | 259 | 0.0 | 0.0 | 0.00 | 0.00 | 0.00 | 39 | 1002.6 |
| 20260504202406 | 29 | 168 | 3.2 | 3.2 | 0.00 | 0.00 | 0.00 | 39 | 1002.6 |
| 20260504201903 | 29 | 276 | 4.8 | 4.8 | 0.00 | 0.00 | 0.00 | 37 | 1002.8 |
| 20260504201401 | 29 | 178 | 6.4 | 9.7 | 0.00 | 0.00 | 0.00 | 40 | 1002.8 |
| 20260504200857 | 29 | 195 | 4.8 | 4.8 | 0.00 | 0.00 | 0.00 | 39 | 1002.8 |
| 20260504200354 | 28 | 242 | 1.6 | 3.2 | 0.00 | 0.00 | 0.00 | 38 | 1002.8 |
| 20260504195851 | 29 | 246 | 0.0 | 1.6 | 0.00 | 0.00 | 0.00 | 41 | 1002.8 |
| 20260504195346 | 29 | 356 | 0.0 | 0.0 | 0.00 | 0.00 | 0.00 | 40 | 1002.8 |
| 20260504194843 | 29 | 250 | 3.2 | 4.8 | 0.00 | 0.00 | 0.00 | 43 | 1002.9 |
| 20260504194339 | 28 | 238 | 1.6 | 1.6 | 0.00 | 0.00 | 0.00 | 40 | 1002.7 |
| 20260504193835 | 28 | 241 | 3.2 | 3.2 | 0.00 | 0.00 | 0.00 | 40 | 1003.0 |
| 20260504193333 | 28 | 309 | 3.2 | 3.2 | 0.00 | 0.00 | 0.00 | 39 | 1002.8 |
| 20260504192832 | 28 | 268 | 0.0 | 1.6 | 0.00 | 0.00 | 0.00 | 40 | 1002.9 |
| 20260504192329 | 28 | 281 | 1.6 | 1.6 | 0.00 | 0.00 | 0.00 | 46 | 1002.9 |
| 20260504191827 | 28 | 105 | 4.8 | 8.0 | 0.00 | 0.00 | 0.00 | 43 | 1002.8 |
| 20260504191325 | 27 | 244 | 3.2 | 3.2 | 0.00 | 0.00 | 0.00 | 42 | 1002.9 |
| 20260504190820 | 27 | 282 | 6.4 | 9.7 | 0.00 | 0.00 | 0.00 | 43 | 1002.9 |
| 20260504190316 | 28 | 187 | 1.6 | 3.2 | 0.00 | 0.00 | 0.00 | 45 | 1002.9 |
| 20260504185813 | 28 | 186 | 1.6 | 1.6 | 0.00 | 0.00 | 0.00 | 45 | 1003.0 |
| 20260504185310 | 27 | 221 | 0.0 | 0.0 | 0.00 | 0.00 | 0.00 | 43 | 1003.0 |
| 20260504184806 | 28 | 172 | 3.2 | 4.8 | 0.00 | 0.00 | 0.00 | 44 | 1002.8 |
| 20260504184302 | 27 | 243 | 3.2 | 3.2 | 0.00 | 0.00 | 0.00 | 43 | 1003.2 |
| 20260504183758 | 28 | 341 | 4.8 | 9.7 | 0.00 | 0.00 | 0.00 | 44 | 1003.1 |
| 20260504183255 | 28 | 270 | 3.2 | 4.8 | 0.00 | 0.00 | 0.00 | 45 | 1003.0 |
| 20260504182753 | 27 | 316 | 1.6 | 3.2 | 0.00 | 0.00 | 0.00 | 48 | 1003.1 |
| 20260504182250 | 27 | 310 | 1.6 | 1.6 | 0.00 | 0.00 | 0.00 | 46 | 1003.1 |
| 20260504181747 | 26 | 237 | 4.8 | 8.0 | 0.00 | 0.00 | 0.00 | 46 | 1003.1 |
| 20260504181244 | 26 | 311 | 4.8 | 4.8 | 0.00 | 0.00 | 0.00 | 47 | 1003.1 |
| 20260504180744 | 27 | 242 | 3.2 | 4.8 | 0.00 | 0.00 | 0.00 | 48 | 1003.1 |
| 20260504180242 | 27 | 224 | 4.8 | 8.0 | 0.00 | 0.00 | 0.00 | 46 | 1003.3 |
| 20260504175739 | 27 | 256 | 3.2 | 4.8 | 0.00 | 0.00 | 0.00 | 47 | 1003.4 |
| 20260504175235 | 26 | 230 | 4.8 | 8.0 | 0.00 | 0.00 | 0.00 | 45 | 1003.5 |
| 20260504174734 | 26 | 125 | 3.2 | 3.2 | 0.00 | 0.00 | 0.00 | 46 | 1003.2 |
| 20260504174231 | 26 | 231 | 1.6 | 1.6 | 0.00 | 0.00 | 0.00 | 47 | 1003.4 |
| 20260504173727 | 27 | 167 | 8.0 | 11.3 | 0.00 | 0.00 | 0.00 | 48 | 1003.3 |
| 20260504173224 | 27 | 283 | 1.6 | 1.6 | 0.00 | 0.00 | 0.00 | 49 | 1003.3 |
| 20260504172721 | 27 | 282 | 4.8 | 9.7 | 0.00 | 0.00 | 0.00 | 47 | 1003.4 |
| 20260504172217 | 27 | 178 | 1.6 | 3.2 | 0.00 | 0.00 | 0.00 | 47 | 1003.4 |
| 20260504171714 | 26 | 352 | 1.6 | 1.6 | 0.00 | 0.00 | 0.00 | 45 | 1003.6 |
| 20260504171211 | 26 | 318 | 4.8 | 8.0 | 0.00 | 0.00 | 0.00 | 44 | 1003.5 |
| 20260504170708 | 27 | 324 | 8.0 | 11.3 | 0.00 | 0.00 | 0.00 | 44 | 1003.7 |
| 20260504170206 | 26 | 226 | 1.6 | 4.8 | 0.00 | 0.00 | 0.00 | 48 | 1003.7 |
| 20260504160124 | 25 | 338 | 0.0 | 1.6 | 0.00 | 0.00 | 0.00 | 52 | 1003.6 |
| 20260504151051 | 22 | 265 | 4.8 | 8.0 | 0.00 | 0.00 | 0.00 | 54 | 1003.5 |
| 20260504150549 | 23 | 148 | 3.2 | 4.8 | 0.00 | 0.00 | 0.00 | 53 | 1003.5 |
| 20260504141014 | 19 | 318 | 3.2 | 3.2 | 0.00 | 0.00 | 0.00 | 62 | 1003.9 |
| 20260504140511 | 19 | 306 | 4.8 | 4.8 | 0.00 | 0.00 | 0.00 | 63 | 1004.1 |
| 20260504130436 | 16 | 35 | 0.0 | 1.6 | 0.00 | 0.00 | 0.00 | 69 | 1003.5 |
| 20260504110323 | 14 | 272 | 0.0 | 0.0 | 0.00 | 0.00 | 0.00 | 74 | 1003.8 |
| 20260504100240 | 12 | 203 | 0.0 | 0.0 | 0.00 | 0.00 | 0.00 | 81 | 1004.9 |
| 20260504081633 | 15 | 202 | 0.0 | 0.0 | 0.00 | 0.00 | 0.00 | 69 | 1005.3 |
| 20260504081129 | 16 | 121 | 0.0 | 0.0 | 0.00 | 0.00 | 0.00 | 67 | 1005.6 |
| 20260504080626 | 16 | 233 | 0.0 | 0.0 | 0.00 | 0.00 | 0.00 | 64 | 1005.5 |
| 20260504080122 | 16 | 245 | 0.0 | 0.0 | 0.00 | 0.00 | 0.00 | 67 | 1005.5 |